Index of /20260506/WXO-DD/model_caps/3km/12/027
Name Last modified Size Description
Parent Directory -
20260506T12Z_MSC_CAPS_AbsoluteVorticity_IsbL-0250_RLatLon0.03_PT027H.grib2 2026-05-06 18:20 1.0M
20260506T12Z_MSC_CAPS_AbsoluteVorticity_IsbL-0500_RLatLon0.03_PT027H.grib2 2026-05-06 18:20 1.1M
20260506T12Z_MSC_CAPS_AbsoluteVorticity_IsbL-0700_RLatLon0.03_PT027H.grib2 2026-05-06 18:20 1.3M
20260506T12Z_MSC_CAPS_AbsoluteVorticity_IsbL-0850_RLatLon0.03_PT027H.grib2 2026-05-06 18:20 1.5M
20260506T12Z_MSC_CAPS_AbsoluteVorticity_IsbL-1000_RLatLon0.03_PT027H.grib2 2026-05-06 18:20 1.6M
20260506T12Z_MSC_CAPS_AirDensity_AGL-120m_RLatLon0.03_PT027H.grib2 2026-05-06 18:20 1.4M
20260506T12Z_MSC_CAPS_AirDensity_AGL-40m_RLatLon0.03_PT027H.grib2 2026-05-06 18:20 1.4M
20260506T12Z_MSC_CAPS_AirDensity_AGL-80m_RLatLon0.03_PT027H.grib2 2026-05-06 18:20 1.4M
20260506T12Z_MSC_CAPS_AirTemp_AGL-120m_RLatLon0.03_PT027H.grib2 2026-05-06 18:20 1.4M
20260506T12Z_MSC_CAPS_AirTemp_AGL-2m_RLatLon0.03_PT027H.grib2 2026-05-06 18:20 1.7M
20260506T12Z_MSC_CAPS_AirTemp_AGL-40m_RLatLon0.03_PT027H.grib2 2026-05-06 18:20 1.5M
20260506T12Z_MSC_CAPS_AirTemp_AGL-80m_RLatLon0.03_PT027H.grib2 2026-05-06 18:20 1.5M
20260506T12Z_MSC_CAPS_AirTemp_IsbL-0050_RLatLon0.03_PT027H.grib2 2026-05-06 18:20 679K
20260506T12Z_MSC_CAPS_AirTemp_IsbL-0100_RLatLon0.03_PT027H.grib2 2026-05-06 18:20 788K
20260506T12Z_MSC_CAPS_AirTemp_IsbL-0150_RLatLon0.03_PT027H.grib2 2026-05-06 18:20 755K
20260506T12Z_MSC_CAPS_AirTemp_IsbL-0175_RLatLon0.03_PT027H.grib2 2026-05-06 18:20 782K
20260506T12Z_MSC_CAPS_AirTemp_IsbL-0200_RLatLon0.03_PT027H.grib2 2026-05-06 18:20 804K
20260506T12Z_MSC_CAPS_AirTemp_IsbL-0225_RLatLon0.03_PT027H.grib2 2026-05-06 18:20 801K
20260506T12Z_MSC_CAPS_AirTemp_IsbL-0250_RLatLon0.03_PT027H.grib2 2026-05-06 18:20 1.0M
20260506T12Z_MSC_CAPS_AirTemp_IsbL-0275_RLatLon0.03_PT027H.grib2 2026-05-06 18:20 1.0M
20260506T12Z_MSC_CAPS_AirTemp_IsbL-0300_RLatLon0.03_PT027H.grib2 2026-05-06 18:20 1.0M
20260506T12Z_MSC_CAPS_AirTemp_IsbL-0350_RLatLon0.03_PT027H.grib2 2026-05-06 18:20 755K
20260506T12Z_MSC_CAPS_AirTemp_IsbL-0400_RLatLon0.03_PT027H.grib2 2026-05-06 18:20 753K
20260506T12Z_MSC_CAPS_AirTemp_IsbL-0450_RLatLon0.03_PT027H.grib2 2026-05-06 18:20 772K
20260506T12Z_MSC_CAPS_AirTemp_IsbL-0500_RLatLon0.03_PT027H.grib2 2026-05-06 18:20 788K
20260506T12Z_MSC_CAPS_AirTemp_IsbL-0550_RLatLon0.03_PT027H.grib2 2026-05-06 18:20 797K
20260506T12Z_MSC_CAPS_AirTemp_IsbL-0600_RLatLon0.03_PT027H.grib2 2026-05-06 18:20 812K
20260506T12Z_MSC_CAPS_AirTemp_IsbL-0650_RLatLon0.03_PT027H.grib2 2026-05-06 18:20 842K
20260506T12Z_MSC_CAPS_AirTemp_IsbL-0700_RLatLon0.03_PT027H.grib2 2026-05-06 18:20 877K
20260506T12Z_MSC_CAPS_AirTemp_IsbL-0750_RLatLon0.03_PT027H.grib2 2026-05-06 18:20 908K
20260506T12Z_MSC_CAPS_AirTemp_IsbL-0800_RLatLon0.03_PT027H.grib2 2026-05-06 18:20 933K
20260506T12Z_MSC_CAPS_AirTemp_IsbL-0850_RLatLon0.03_PT027H.grib2 2026-05-06 18:20 1.1M
20260506T12Z_MSC_CAPS_AirTemp_IsbL-0875_RLatLon0.03_PT027H.grib2 2026-05-06 18:20 1.1M
20260506T12Z_MSC_CAPS_AirTemp_IsbL-0900_RLatLon0.03_PT027H.grib2 2026-05-06 18:20 1.1M
20260506T12Z_MSC_CAPS_AirTemp_IsbL-0925_RLatLon0.03_PT027H.grib2 2026-05-06 18:20 1.0M
20260506T12Z_MSC_CAPS_AirTemp_IsbL-0950_RLatLon0.03_PT027H.grib2 2026-05-06 18:20 1.1M
20260506T12Z_MSC_CAPS_AirTemp_IsbL-0970_RLatLon0.03_PT027H.grib2 2026-05-06 18:20 1.1M
20260506T12Z_MSC_CAPS_AirTemp_IsbL-0985_RLatLon0.03_PT027H.grib2 2026-05-06 18:20 1.1M
20260506T12Z_MSC_CAPS_AirTemp_IsbL-1000_RLatLon0.03_PT027H.grib2 2026-05-06 18:20 1.0M
20260506T12Z_MSC_CAPS_AirTemp_IsbL-1015_RLatLon0.03_PT027H.grib2 2026-05-06 18:20 1.1M
20260506T12Z_MSC_CAPS_Albedo_Sfc_RLatLon0.03_PT027H.grib2 2026-05-06 18:20 2.7M
20260506T12Z_MSC_CAPS_CAPE_Sfc_RLatLon0.03_PT027H.grib2 2026-05-06 18:20 228K
20260506T12Z_MSC_CAPS_CloudWater_EAtm_RLatLon0.03_PT027H.grib2 2026-05-06 18:20 1.6M
20260506T12Z_MSC_CAPS_ConvectivePrecip-Accum_Sfc_RLatLon0.03_PT027H.grib2 2026-05-06 18:20 4.2M
20260506T12Z_MSC_CAPS_DewPointDepression_AGL-120m_RLatLon0.03_PT027H.grib2 2026-05-06 18:20 2.2M
20260506T12Z_MSC_CAPS_DewPointDepression_AGL-2m_RLatLon0.03_PT027H.grib2 2026-05-06 18:20 2.2M
20260506T12Z_MSC_CAPS_DewPointDepression_AGL-40m_RLatLon0.03_PT027H.grib2 2026-05-06 18:20 2.2M
20260506T12Z_MSC_CAPS_DewPointDepression_AGL-80m_RLatLon0.03_PT027H.grib2 2026-05-06 18:20 2.2M
20260506T12Z_MSC_CAPS_DewPointDepression_IsbL-0050_RLatLon0.03_PT027H.grib2 2026-05-06 18:20 3.2K
20260506T12Z_MSC_CAPS_DewPointDepression_IsbL-0100_RLatLon0.03_PT027H.grib2 2026-05-06 18:20 53K
20260506T12Z_MSC_CAPS_DewPointDepression_IsbL-0150_RLatLon0.03_PT027H.grib2 2026-05-06 18:20 63K
20260506T12Z_MSC_CAPS_DewPointDepression_IsbL-0175_RLatLon0.03_PT027H.grib2 2026-05-06 18:20 213K
20260506T12Z_MSC_CAPS_DewPointDepression_IsbL-0200_RLatLon0.03_PT027H.grib2 2026-05-06 18:20 402K
20260506T12Z_MSC_CAPS_DewPointDepression_IsbL-0225_RLatLon0.03_PT027H.grib2 2026-05-06 18:20 595K
20260506T12Z_MSC_CAPS_DewPointDepression_IsbL-0250_RLatLon0.03_PT027H.grib2 2026-05-06 18:20 854K
20260506T12Z_MSC_CAPS_DewPointDepression_IsbL-0275_RLatLon0.03_PT027H.grib2 2026-05-06 18:20 1.0M
20260506T12Z_MSC_CAPS_DewPointDepression_IsbL-0300_RLatLon0.03_PT027H.grib2 2026-05-06 18:20 1.0M
20260506T12Z_MSC_CAPS_DewPointDepression_IsbL-0350_RLatLon0.03_PT027H.grib2 2026-05-06 18:20 1.1M
20260506T12Z_MSC_CAPS_DewPointDepression_IsbL-0400_RLatLon0.03_PT027H.grib2 2026-05-06 18:20 1.1M
20260506T12Z_MSC_CAPS_DewPointDepression_IsbL-0450_RLatLon0.03_PT027H.grib2 2026-05-06 18:20 1.2M
20260506T12Z_MSC_CAPS_DewPointDepression_IsbL-0500_RLatLon0.03_PT027H.grib2 2026-05-06 18:20 1.2M
20260506T12Z_MSC_CAPS_DewPointDepression_IsbL-0550_RLatLon0.03_PT027H.grib2 2026-05-06 18:20 1.2M
20260506T12Z_MSC_CAPS_DewPointDepression_IsbL-0600_RLatLon0.03_PT027H.grib2 2026-05-06 18:20 1.3M
20260506T12Z_MSC_CAPS_DewPointDepression_IsbL-0650_RLatLon0.03_PT027H.grib2 2026-05-06 18:20 1.3M
20260506T12Z_MSC_CAPS_DewPointDepression_IsbL-0700_RLatLon0.03_PT027H.grib2 2026-05-06 18:20 1.3M
20260506T12Z_MSC_CAPS_DewPointDepression_IsbL-0750_RLatLon0.03_PT027H.grib2 2026-05-06 18:20 1.4M
20260506T12Z_MSC_CAPS_DewPointDepression_IsbL-0800_RLatLon0.03_PT027H.grib2 2026-05-06 18:20 1.4M
20260506T12Z_MSC_CAPS_DewPointDepression_IsbL-0850_RLatLon0.03_PT027H.grib2 2026-05-06 18:20 1.4M
20260506T12Z_MSC_CAPS_DewPointDepression_IsbL-0875_RLatLon0.03_PT027H.grib2 2026-05-06 18:20 1.4M
20260506T12Z_MSC_CAPS_DewPointDepression_IsbL-0900_RLatLon0.03_PT027H.grib2 2026-05-06 18:20 1.4M
20260506T12Z_MSC_CAPS_DewPointDepression_IsbL-0925_RLatLon0.03_PT027H.grib2 2026-05-06 18:20 1.4M
20260506T12Z_MSC_CAPS_DewPointDepression_IsbL-0950_RLatLon0.03_PT027H.grib2 2026-05-06 18:20 1.4M
20260506T12Z_MSC_CAPS_DewPointDepression_IsbL-0970_RLatLon0.03_PT027H.grib2 2026-05-06 18:20 1.4M
20260506T12Z_MSC_CAPS_DewPointDepression_IsbL-0985_RLatLon0.03_PT027H.grib2 2026-05-06 18:20 1.4M
20260506T12Z_MSC_CAPS_DewPointDepression_IsbL-1000_RLatLon0.03_PT027H.grib2 2026-05-06 18:20 1.4M
20260506T12Z_MSC_CAPS_DewPointDepression_IsbL-1015_RLatLon0.03_PT027H.grib2 2026-05-06 18:20 1.4M
20260506T12Z_MSC_CAPS_DewPoint_AGL-120m_RLatLon0.03_PT027H.grib2 2026-05-06 18:20 3.8M
20260506T12Z_MSC_CAPS_DewPoint_AGL-2m_RLatLon0.03_PT027H.grib2 2026-05-06 18:20 1.8M
20260506T12Z_MSC_CAPS_DewPoint_AGL-40m_RLatLon0.03_PT027H.grib2 2026-05-06 18:20 3.8M
20260506T12Z_MSC_CAPS_DewPoint_AGL-80m_RLatLon0.03_PT027H.grib2 2026-05-06 18:20 3.8M
20260506T12Z_MSC_CAPS_DownwardLongwaveRadiationFlux-Accum_Sfc_RLatLon0.03_PT027H.grib2 2026-05-06 18:20 2.5M
20260506T12Z_MSC_CAPS_DownwardShortwaveRadiationFlux-Accum_NTAtm_RLatLon0.03_PT027H.grib2 2026-05-06 18:20 431K
20260506T12Z_MSC_CAPS_DownwardShortwaveRadiationFlux-Accum_Sfc_RLatLon0.03_PT027H.grib2 2026-05-06 18:20 2.9M
20260506T12Z_MSC_CAPS_FreezingRain-Accum_Sfc_RLatLon0.03_PT027H.grib2 2026-05-06 18:20 791K
20260506T12Z_MSC_CAPS_GeopotentialHeight_IsbL-0050_RLatLon0.03_PT027H.grib2 2026-05-06 18:20 606K
20260506T12Z_MSC_CAPS_GeopotentialHeight_IsbL-0100_RLatLon0.03_PT027H.grib2 2026-05-06 18:20 808K
20260506T12Z_MSC_CAPS_GeopotentialHeight_IsbL-0150_RLatLon0.03_PT027H.grib2 2026-05-06 18:20 598K
20260506T12Z_MSC_CAPS_GeopotentialHeight_IsbL-0175_RLatLon0.03_PT027H.grib2 2026-05-06 18:20 719K
20260506T12Z_MSC_CAPS_GeopotentialHeight_IsbL-0200_RLatLon0.03_PT027H.grib2 2026-05-06 18:20 740K
20260506T12Z_MSC_CAPS_GeopotentialHeight_IsbL-0225_RLatLon0.03_PT027H.grib2 2026-05-06 18:20 753K
20260506T12Z_MSC_CAPS_GeopotentialHeight_IsbL-0250_RLatLon0.03_PT027H.grib2 2026-05-06 18:20 764K
20260506T12Z_MSC_CAPS_GeopotentialHeight_IsbL-0275_RLatLon0.03_PT027H.grib2 2026-05-06 18:20 774K
20260506T12Z_MSC_CAPS_GeopotentialHeight_IsbL-0300_RLatLon0.03_PT027H.grib2 2026-05-06 18:20 778K
20260506T12Z_MSC_CAPS_GeopotentialHeight_IsbL-0350_RLatLon0.03_PT027H.grib2 2026-05-06 18:20 778K
20260506T12Z_MSC_CAPS_GeopotentialHeight_IsbL-0400_RLatLon0.03_PT027H.grib2 2026-05-06 18:20 773K
20260506T12Z_MSC_CAPS_GeopotentialHeight_IsbL-0450_RLatLon0.03_PT027H.grib2 2026-05-06 18:20 767K
20260506T12Z_MSC_CAPS_GeopotentialHeight_IsbL-0500_RLatLon0.03_PT027H.grib2 2026-05-06 18:20 758K
20260506T12Z_MSC_CAPS_GeopotentialHeight_IsbL-0550_RLatLon0.03_PT027H.grib2 2026-05-06 18:20 637K
20260506T12Z_MSC_CAPS_GeopotentialHeight_IsbL-0600_RLatLon0.03_PT027H.grib2 2026-05-06 18:20 630K
20260506T12Z_MSC_CAPS_GeopotentialHeight_IsbL-0650_RLatLon0.03_PT027H.grib2 2026-05-06 18:20 802K
20260506T12Z_MSC_CAPS_GeopotentialHeight_IsbL-0700_RLatLon0.03_PT027H.grib2 2026-05-06 18:20 799K
20260506T12Z_MSC_CAPS_GeopotentialHeight_IsbL-0750_RLatLon0.03_PT027H.grib2 2026-05-06 18:20 803K
20260506T12Z_MSC_CAPS_GeopotentialHeight_IsbL-0800_RLatLon0.03_PT027H.grib2 2026-05-06 18:20 882K
20260506T12Z_MSC_CAPS_GeopotentialHeight_IsbL-0850_RLatLon0.03_PT027H.grib2 2026-05-06 18:20 890K
20260506T12Z_MSC_CAPS_GeopotentialHeight_IsbL-0875_RLatLon0.03_PT027H.grib2 2026-05-06 18:20 896K
20260506T12Z_MSC_CAPS_GeopotentialHeight_IsbL-0900_RLatLon0.03_PT027H.grib2 2026-05-06 18:20 903K
20260506T12Z_MSC_CAPS_GeopotentialHeight_IsbL-0925_RLatLon0.03_PT027H.grib2 2026-05-06 18:20 913K
20260506T12Z_MSC_CAPS_GeopotentialHeight_IsbL-0950_RLatLon0.03_PT027H.grib2 2026-05-06 18:20 924K
20260506T12Z_MSC_CAPS_GeopotentialHeight_IsbL-0970_RLatLon0.03_PT027H.grib2 2026-05-06 18:20 933K
20260506T12Z_MSC_CAPS_GeopotentialHeight_IsbL-0985_RLatLon0.03_PT027H.grib2 2026-05-06 18:20 944K
20260506T12Z_MSC_CAPS_GeopotentialHeight_IsbL-1000_RLatLon0.03_PT027H.grib2 2026-05-06 18:20 955K
20260506T12Z_MSC_CAPS_GeopotentialHeight_IsbL-1015_RLatLon0.03_PT027H.grib2 2026-05-06 18:20 966K
20260506T12Z_MSC_CAPS_GeopotentialHeight_Sfc_RLatLon0.03_PT027H.grib2 2026-05-06 18:20 1.0M
20260506T12Z_MSC_CAPS_IcePellets-Accum_Sfc_RLatLon0.03_PT027H.grib2 2026-05-06 18:20 29K
20260506T12Z_MSC_CAPS_LatentHeatNetFlux_Sfc_RLatLon0.03_PT027H.grib2 2026-05-06 18:20 1.9M
20260506T12Z_MSC_CAPS_LiftedIndex-MU-VT_IsbL-0500_RLatLon0.03_PT027H.grib2 2026-05-06 18:20 3.3M
20260506T12Z_MSC_CAPS_MixedLayerThickness_Sfc_RLatLon0.03_PT027H.nc 2026-05-06 18:13 17M
20260506T12Z_MSC_CAPS_NetLongwaveRadiationFlux-Accum_Sfc_RLatLon0.03_PT027H.grib2 2026-05-06 18:20 2.7M
20260506T12Z_MSC_CAPS_NetShortwaveRadiationFlux-Accum_Sfc_RLatLon0.03_PT027H.grib2 2026-05-06 18:20 2.9M
20260506T12Z_MSC_CAPS_PlanetaryBoundaryLayerHeight_Sfc_RLatLon0.03_PT027H.grib2 2026-05-06 18:20 3.1M
20260506T12Z_MSC_CAPS_Precip-Accum_Sfc_RLatLon0.03_PT027H.grib2 2026-05-06 18:20 5.0M
20260506T12Z_MSC_CAPS_PrecipRate_Sfc_RLatLon0.03_PT027H.grib2 2026-05-06 18:20 344K
20260506T12Z_MSC_CAPS_PrecipType-Instant_Sfc_RLatLon0.03_PT027H.grib2 2026-05-06 18:20 2.1M
20260506T12Z_MSC_CAPS_Pressure_MSL_RLatLon0.03_PT027H.grib2 2026-05-06 18:20 761K
20260506T12Z_MSC_CAPS_Pressure_Sfc_RLatLon0.03_PT027H.grib2 2026-05-06 18:20 1.2M
20260506T12Z_MSC_CAPS_RadiativeTemp_Sfc_RLatLon0.03_PT027H.grib2 2026-05-06 18:20 2.1M
20260506T12Z_MSC_CAPS_Rain-Accum_Sfc_RLatLon0.03_PT027H.grib2 2026-05-06 18:20 2.4M
20260506T12Z_MSC_CAPS_RelativeHumidity_AGL-120m_RLatLon0.03_PT027H.grib2 2026-05-06 18:20 2.9M
20260506T12Z_MSC_CAPS_RelativeHumidity_AGL-2m_RLatLon0.03_PT027H.grib2 2026-05-06 18:20 3.0M
20260506T12Z_MSC_CAPS_RelativeHumidity_AGL-40m_RLatLon0.03_PT027H.grib2 2026-05-06 18:20 3.0M
20260506T12Z_MSC_CAPS_RelativeHumidity_AGL-80m_RLatLon0.03_PT027H.grib2 2026-05-06 18:20 2.9M
20260506T12Z_MSC_CAPS_RelativeHumidity_IsbL-0050_RLatLon0.03_PT027H.grib2 2026-05-06 18:20 716K
20260506T12Z_MSC_CAPS_RelativeHumidity_IsbL-0100_RLatLon0.03_PT027H.grib2 2026-05-06 18:20 1.0M
20260506T12Z_MSC_CAPS_RelativeHumidity_IsbL-0150_RLatLon0.03_PT027H.grib2 2026-05-06 18:20 576K
20260506T12Z_MSC_CAPS_RelativeHumidity_IsbL-0175_RLatLon0.03_PT027H.grib2 2026-05-06 18:20 466K
20260506T12Z_MSC_CAPS_RelativeHumidity_IsbL-0200_RLatLon0.03_PT027H.grib2 2026-05-06 18:20 671K
20260506T12Z_MSC_CAPS_RelativeHumidity_IsbL-0225_RLatLon0.03_PT027H.grib2 2026-05-06 18:20 907K
20260506T12Z_MSC_CAPS_RelativeHumidity_IsbL-0250_RLatLon0.03_PT027H.grib2 2026-05-06 18:20 1.1M
20260506T12Z_MSC_CAPS_RelativeHumidity_IsbL-0275_RLatLon0.03_PT027H.grib2 2026-05-06 18:20 1.4M
20260506T12Z_MSC_CAPS_RelativeHumidity_IsbL-0300_RLatLon0.03_PT027H.grib2 2026-05-06 18:20 1.7M
20260506T12Z_MSC_CAPS_RelativeHumidity_IsbL-0350_RLatLon0.03_PT027H.grib2 2026-05-06 18:20 2.0M
20260506T12Z_MSC_CAPS_RelativeHumidity_IsbL-0400_RLatLon0.03_PT027H.grib2 2026-05-06 18:20 2.1M
20260506T12Z_MSC_CAPS_RelativeHumidity_IsbL-0450_RLatLon0.03_PT027H.grib2 2026-05-06 18:20 2.0M
20260506T12Z_MSC_CAPS_RelativeHumidity_IsbL-0500_RLatLon0.03_PT027H.grib2 2026-05-06 18:20 2.2M
20260506T12Z_MSC_CAPS_RelativeHumidity_IsbL-0550_RLatLon0.03_PT027H.grib2 2026-05-06 18:20 2.2M
20260506T12Z_MSC_CAPS_RelativeHumidity_IsbL-0600_RLatLon0.03_PT027H.grib2 2026-05-06 18:20 2.3M
20260506T12Z_MSC_CAPS_RelativeHumidity_IsbL-0650_RLatLon0.03_PT027H.grib2 2026-05-06 18:20 2.3M
20260506T12Z_MSC_CAPS_RelativeHumidity_IsbL-0700_RLatLon0.03_PT027H.grib2 2026-05-06 18:20 2.3M
20260506T12Z_MSC_CAPS_RelativeHumidity_IsbL-0750_RLatLon0.03_PT027H.grib2 2026-05-06 18:20 2.4M
20260506T12Z_MSC_CAPS_RelativeHumidity_IsbL-0800_RLatLon0.03_PT027H.grib2 2026-05-06 18:20 2.6M
20260506T12Z_MSC_CAPS_RelativeHumidity_IsbL-0850_RLatLon0.03_PT027H.grib2 2026-05-06 18:20 2.7M
20260506T12Z_MSC_CAPS_RelativeHumidity_IsbL-0875_RLatLon0.03_PT027H.grib2 2026-05-06 18:20 2.7M
20260506T12Z_MSC_CAPS_RelativeHumidity_IsbL-0900_RLatLon0.03_PT027H.grib2 2026-05-06 18:20 2.7M
20260506T12Z_MSC_CAPS_RelativeHumidity_IsbL-0925_RLatLon0.03_PT027H.grib2 2026-05-06 18:20 2.8M
20260506T12Z_MSC_CAPS_RelativeHumidity_IsbL-0950_RLatLon0.03_PT027H.grib2 2026-05-06 18:20 2.8M
20260506T12Z_MSC_CAPS_RelativeHumidity_IsbL-0970_RLatLon0.03_PT027H.grib2 2026-05-06 18:20 2.9M
20260506T12Z_MSC_CAPS_RelativeHumidity_IsbL-0985_RLatLon0.03_PT027H.grib2 2026-05-06 18:20 3.0M
20260506T12Z_MSC_CAPS_RelativeHumidity_IsbL-1000_RLatLon0.03_PT027H.grib2 2026-05-06 18:20 3.0M
20260506T12Z_MSC_CAPS_RelativeHumidity_IsbL-1015_RLatLon0.03_PT027H.grib2 2026-05-06 18:20 3.0M
20260506T12Z_MSC_CAPS_Runoff-Accum_Sfc_RLatLon0.03_PT027H.grib2 2026-05-06 18:20 350K
20260506T12Z_MSC_CAPS_SeaIceAreaFraction_Sfc_RLatLon0.03_PT027H.nc 2026-05-06 18:13 15M
20260506T12Z_MSC_CAPS_SeaIceCompressiveStrength_Sfc_RLatLon0.03_PT027H.nc 2026-05-06 18:13 15M
20260506T12Z_MSC_CAPS_SeaIceDivergence_Sfc_RLatLon0.03_PT027H.nc 2026-05-06 18:13 15M
20260506T12Z_MSC_CAPS_SeaIceInternalPressure_Sfc_RLatLon0.03_PT027H.nc 2026-05-06 18:13 15M
20260506T12Z_MSC_CAPS_SeaIceShear_Sfc_RLatLon0.03_PT027H.nc 2026-05-06 18:13 15M
20260506T12Z_MSC_CAPS_SeaIceSnowTemp_Sfc_RLatLon0.03_PT027H.nc 2026-05-06 18:13 14M
20260506T12Z_MSC_CAPS_SeaIceSnowVolume_Sfc_RLatLon0.03_PT027H.nc 2026-05-06 18:13 15M
20260506T12Z_MSC_CAPS_SeaIceVelocityX_Sfc_RLatLon0.03_PT027H.nc 2026-05-06 18:13 15M
20260506T12Z_MSC_CAPS_SeaIceVelocityY_Sfc_RLatLon0.03_PT027H.nc 2026-05-06 18:13 15M
20260506T12Z_MSC_CAPS_SeaIceVolume_Sfc_RLatLon0.03_PT027H.nc 2026-05-06 18:13 15M
20260506T12Z_MSC_CAPS_SeaSurfaceHeight_Sfc_RLatLon0.03_PT027H.nc 2026-05-06 18:13 16M
20260506T12Z_MSC_CAPS_SeaWaterSalinity_DBS-0.5m_RLatLon0.03_PT027H.nc 2026-05-06 18:13 16M
20260506T12Z_MSC_CAPS_SeaWaterSalinity_DBS-all_RLatLon0.03_PT027H.nc 2026-05-06 18:13 107M
20260506T12Z_MSC_CAPS_SeaWaterTemp_DBS-0.5m_RLatLon0.03_PT027H.nc 2026-05-06 18:13 15M
20260506T12Z_MSC_CAPS_SeaWaterTemp_DBS-all_RLatLon0.03_PT027H.nc 2026-05-06 18:13 88M
20260506T12Z_MSC_CAPS_SeaWaterVelocityX_DBS-0.5m_RLatLon0.03_PT027H.nc 2026-05-06 18:13 17M
20260506T12Z_MSC_CAPS_SeaWaterVelocityX_DBS-all_RLatLon0.03_PT027H.nc 2026-05-06 18:13 208M
20260506T12Z_MSC_CAPS_SeaWaterVelocityY_DBS-0.5m_RLatLon0.03_PT027H.nc 2026-05-06 18:13 18M
20260506T12Z_MSC_CAPS_SeaWaterVelocityY_DBS-all_RLatLon0.03_PT027H.nc 2026-05-06 18:13 215M
20260506T12Z_MSC_CAPS_SensibleHeatNetFlux_Sfc_RLatLon0.03_PT027H.grib2 2026-05-06 18:20 2.1M
20260506T12Z_MSC_CAPS_ShowalterIndex_IsbL-0500_RLatLon0.03_PT027H.grib2 2026-05-06 18:20 4.3M
20260506T12Z_MSC_CAPS_Snow-Accum_Sfc_RLatLon0.03_PT027H.grib2 2026-05-06 18:20 4.1M
20260506T12Z_MSC_CAPS_SnowDensity_Sfc_RLatLon0.03_PT027H.grib2 2026-05-06 18:20 1.3M
20260506T12Z_MSC_CAPS_SnowDepthWaterEquivalent_Sfc_RLatLon0.03_PT027H.grib2 2026-05-06 18:20 646K
20260506T12Z_MSC_CAPS_SnowDepth_Sfc_RLatLon0.03_PT027H.grib2 2026-05-06 18:20 1.1M
20260506T12Z_MSC_CAPS_SoilTemp_DBS-0to10cm_RLatLon0.03_PT027H.grib2 2026-05-06 18:20 1.6M
20260506T12Z_MSC_CAPS_SoilTemp_Sfc_RLatLon0.03_PT027H.grib2 2026-05-06 18:20 1.8M
20260506T12Z_MSC_CAPS_SoilVolumetricIceContent_Sfc_RLatLon0.03_PT027H.grib2 2026-05-06 18:20 1.3M
20260506T12Z_MSC_CAPS_SoilVolumetricWaterContent_DBS-0to10cm_RLatLon0.03_PT027H.grib2 2026-05-06 18:20 1.3M
20260506T12Z_MSC_CAPS_SoilVolumetricWaterContent_DBS-0to1cm_RLatLon0.03_PT027H.grib2 2026-05-06 18:20 1.7M
20260506T12Z_MSC_CAPS_SpecificHumidity_AGL-120m_RLatLon0.03_PT027H.grib2 2026-05-06 18:20 1.5M
20260506T12Z_MSC_CAPS_SpecificHumidity_AGL-2m_RLatLon0.03_PT027H.grib2 2026-05-06 18:20 1.8M
20260506T12Z_MSC_CAPS_SpecificHumidity_AGL-40m_RLatLon0.03_PT027H.grib2 2026-05-06 18:20 1.6M
20260506T12Z_MSC_CAPS_SpecificHumidity_AGL-80m_RLatLon0.03_PT027H.grib2 2026-05-06 18:20 1.6M
20260506T12Z_MSC_CAPS_SpecificHumidity_IsbL-0050_RLatLon0.03_PT027H.grib2 2026-05-06 18:20 910K
20260506T12Z_MSC_CAPS_SpecificHumidity_IsbL-0100_RLatLon0.03_PT027H.grib2 2026-05-06 18:20 969K
20260506T12Z_MSC_CAPS_SpecificHumidity_IsbL-0150_RLatLon0.03_PT027H.grib2 2026-05-06 18:20 1.0M
20260506T12Z_MSC_CAPS_SpecificHumidity_IsbL-0175_RLatLon0.03_PT027H.grib2 2026-05-06 18:20 868K
20260506T12Z_MSC_CAPS_SpecificHumidity_IsbL-0200_RLatLon0.03_PT027H.grib2 2026-05-06 18:20 890K
20260506T12Z_MSC_CAPS_SpecificHumidity_IsbL-0225_RLatLon0.03_PT027H.grib2 2026-05-06 18:20 1.1M
20260506T12Z_MSC_CAPS_SpecificHumidity_IsbL-0250_RLatLon0.03_PT027H.grib2 2026-05-06 18:20 1.1M
20260506T12Z_MSC_CAPS_SpecificHumidity_IsbL-0275_RLatLon0.03_PT027H.grib2 2026-05-06 18:20 1.1M
20260506T12Z_MSC_CAPS_SpecificHumidity_IsbL-0300_RLatLon0.03_PT027H.grib2 2026-05-06 18:20 1.1M
20260506T12Z_MSC_CAPS_SpecificHumidity_IsbL-0350_RLatLon0.03_PT027H.grib2 2026-05-06 18:20 1.0M
20260506T12Z_MSC_CAPS_SpecificHumidity_IsbL-0400_RLatLon0.03_PT027H.grib2 2026-05-06 18:20 1.3M
20260506T12Z_MSC_CAPS_SpecificHumidity_IsbL-0450_RLatLon0.03_PT027H.grib2 2026-05-06 18:20 1.2M
20260506T12Z_MSC_CAPS_SpecificHumidity_IsbL-0500_RLatLon0.03_PT027H.grib2 2026-05-06 18:20 1.1M
20260506T12Z_MSC_CAPS_SpecificHumidity_IsbL-0550_RLatLon0.03_PT027H.grib2 2026-05-06 18:20 1.3M
20260506T12Z_MSC_CAPS_SpecificHumidity_IsbL-0600_RLatLon0.03_PT027H.grib2 2026-05-06 18:20 1.4M
20260506T12Z_MSC_CAPS_SpecificHumidity_IsbL-0650_RLatLon0.03_PT027H.grib2 2026-05-06 18:20 1.2M
20260506T12Z_MSC_CAPS_SpecificHumidity_IsbL-0700_RLatLon0.03_PT027H.grib2 2026-05-06 18:20 1.3M
20260506T12Z_MSC_CAPS_SpecificHumidity_IsbL-0750_RLatLon0.03_PT027H.grib2 2026-05-06 18:20 1.5M
20260506T12Z_MSC_CAPS_SpecificHumidity_IsbL-0800_RLatLon0.03_PT027H.grib2 2026-05-06 18:20 1.7M
20260506T12Z_MSC_CAPS_SpecificHumidity_IsbL-0850_RLatLon0.03_PT027H.grib2 2026-05-06 18:20 1.8M
20260506T12Z_MSC_CAPS_SpecificHumidity_IsbL-0875_RLatLon0.03_PT027H.grib2 2026-05-06 18:20 1.5M
20260506T12Z_MSC_CAPS_SpecificHumidity_IsbL-0900_RLatLon0.03_PT027H.grib2 2026-05-06 18:20 1.6M
20260506T12Z_MSC_CAPS_SpecificHumidity_IsbL-0925_RLatLon0.03_PT027H.grib2 2026-05-06 18:20 1.6M
20260506T12Z_MSC_CAPS_SpecificHumidity_IsbL-0950_RLatLon0.03_PT027H.grib2 2026-05-06 18:20 1.7M
20260506T12Z_MSC_CAPS_SpecificHumidity_IsbL-0970_RLatLon0.03_PT027H.grib2 2026-05-06 18:20 1.7M
20260506T12Z_MSC_CAPS_SpecificHumidity_IsbL-0985_RLatLon0.03_PT027H.grib2 2026-05-06 18:20 1.8M
20260506T12Z_MSC_CAPS_SpecificHumidity_IsbL-1000_RLatLon0.03_PT027H.grib2 2026-05-06 18:20 1.8M
20260506T12Z_MSC_CAPS_SpecificHumidity_IsbL-1015_RLatLon0.03_PT027H.grib2 2026-05-06 18:20 1.8M
20260506T12Z_MSC_CAPS_SpecificHumidity_Sfc_RLatLon0.03_PT027H.grib2 2026-05-06 18:20 2.2M
20260506T12Z_MSC_CAPS_StormRelativeHelicity_Sfc_RLatLon0.03_PT027H.grib2 2026-05-06 18:20 3.1M
20260506T12Z_MSC_CAPS_Thickness_IsbL-1000to0500_RLatLon0.03_PT027H.grib2 2026-05-06 18:20 409K
20260506T12Z_MSC_CAPS_TotalCloudCover_Sfc_RLatLon0.03_PT027H.grib2 2026-05-06 18:20 3.9M
20260506T12Z_MSC_CAPS_TurboclineDepth_Sfc_RLatLon0.03_PT027H.nc 2026-05-06 18:13 16M
20260506T12Z_MSC_CAPS_UpwardLongwaveRadiationFlux_NTAtm_RLatLon0.03_PT027H.grib2 2026-05-06 18:20 3.0M
20260506T12Z_MSC_CAPS_UpwardShortwaveRadiationFlux_NTAtm_RLatLon0.03_PT027H.grib2 2026-05-06 18:20 2.7M
20260506T12Z_MSC_CAPS_VerticalVelocity_IsbL-0250_RLatLon0.03_PT027H.grib2 2026-05-06 18:20 921K
20260506T12Z_MSC_CAPS_VerticalVelocity_IsbL-0500_RLatLon0.03_PT027H.grib2 2026-05-06 18:20 892K
20260506T12Z_MSC_CAPS_VerticalVelocity_IsbL-0700_RLatLon0.03_PT027H.grib2 2026-05-06 18:20 954K
20260506T12Z_MSC_CAPS_VerticalVelocity_IsbL-0850_RLatLon0.03_PT027H.grib2 2026-05-06 18:20 1.1M
20260506T12Z_MSC_CAPS_VerticalVelocity_IsbL-1000_RLatLon0.03_PT027H.grib2 2026-05-06 18:20 1.3M
20260506T12Z_MSC_CAPS_WindDir_AGL-10m_RLatLon0.03_PT027H.grib2 2026-05-06 18:20 2.5M
20260506T12Z_MSC_CAPS_WindDir_AGL-120m_RLatLon0.03_PT027H.grib2 2026-05-06 18:20 1.3M
20260506T12Z_MSC_CAPS_WindDir_AGL-40m_RLatLon0.03_PT027H.grib2 2026-05-06 18:20 1.5M
20260506T12Z_MSC_CAPS_WindDir_AGL-80m_RLatLon0.03_PT027H.grib2 2026-05-06 18:20 1.4M
20260506T12Z_MSC_CAPS_WindDir_IsbL-0050_RLatLon0.03_PT027H.grib2 2026-05-06 18:20 1.1M
20260506T12Z_MSC_CAPS_WindDir_IsbL-0100_RLatLon0.03_PT027H.grib2 2026-05-06 18:20 1.1M
20260506T12Z_MSC_CAPS_WindDir_IsbL-0150_RLatLon0.03_PT027H.grib2 2026-05-06 18:20 1.1M
20260506T12Z_MSC_CAPS_WindDir_IsbL-0175_RLatLon0.03_PT027H.grib2 2026-05-06 18:20 1.0M
20260506T12Z_MSC_CAPS_WindDir_IsbL-0200_RLatLon0.03_PT027H.grib2 2026-05-06 18:20 1.1M
20260506T12Z_MSC_CAPS_WindDir_IsbL-0225_RLatLon0.03_PT027H.grib2 2026-05-06 18:20 1.1M
20260506T12Z_MSC_CAPS_WindDir_IsbL-0250_RLatLon0.03_PT027H.grib2 2026-05-06 18:20 1.1M
20260506T12Z_MSC_CAPS_WindDir_IsbL-0275_RLatLon0.03_PT027H.grib2 2026-05-06 18:20 1.1M
20260506T12Z_MSC_CAPS_WindDir_IsbL-0300_RLatLon0.03_PT027H.grib2 2026-05-06 18:20 1.1M
20260506T12Z_MSC_CAPS_WindDir_IsbL-0350_RLatLon0.03_PT027H.grib2 2026-05-06 18:20 1.1M
20260506T12Z_MSC_CAPS_WindDir_IsbL-0400_RLatLon0.03_PT027H.grib2 2026-05-06 18:20 1.2M
20260506T12Z_MSC_CAPS_WindDir_IsbL-0450_RLatLon0.03_PT027H.grib2 2026-05-06 18:20 1.2M
20260506T12Z_MSC_CAPS_WindDir_IsbL-0500_RLatLon0.03_PT027H.grib2 2026-05-06 18:20 1.2M
20260506T12Z_MSC_CAPS_WindDir_IsbL-0550_RLatLon0.03_PT027H.grib2 2026-05-06 18:20 1.2M
20260506T12Z_MSC_CAPS_WindDir_IsbL-0600_RLatLon0.03_PT027H.grib2 2026-05-06 18:20 1.3M
20260506T12Z_MSC_CAPS_WindDir_IsbL-0650_RLatLon0.03_PT027H.grib2 2026-05-06 18:20 1.4M
20260506T12Z_MSC_CAPS_WindDir_IsbL-0700_RLatLon0.03_PT027H.grib2 2026-05-06 18:20 1.5M
20260506T12Z_MSC_CAPS_WindDir_IsbL-0750_RLatLon0.03_PT027H.grib2 2026-05-06 18:20 1.6M
20260506T12Z_MSC_CAPS_WindDir_IsbL-0800_RLatLon0.03_PT027H.grib2 2026-05-06 18:20 1.8M
20260506T12Z_MSC_CAPS_WindDir_IsbL-0850_RLatLon0.03_PT027H.grib2 2026-05-06 18:20 1.9M
20260506T12Z_MSC_CAPS_WindDir_IsbL-0875_RLatLon0.03_PT027H.grib2 2026-05-06 18:20 2.0M
20260506T12Z_MSC_CAPS_WindDir_IsbL-0900_RLatLon0.03_PT027H.grib2 2026-05-06 18:20 2.0M
20260506T12Z_MSC_CAPS_WindDir_IsbL-0925_RLatLon0.03_PT027H.grib2 2026-05-06 18:20 2.1M
20260506T12Z_MSC_CAPS_WindDir_IsbL-0950_RLatLon0.03_PT027H.grib2 2026-05-06 18:20 2.2M
20260506T12Z_MSC_CAPS_WindDir_IsbL-0970_RLatLon0.03_PT027H.grib2 2026-05-06 18:20 2.3M
20260506T12Z_MSC_CAPS_WindDir_IsbL-0985_RLatLon0.03_PT027H.grib2 2026-05-06 18:20 2.3M
20260506T12Z_MSC_CAPS_WindDir_IsbL-1000_RLatLon0.03_PT027H.grib2 2026-05-06 18:20 2.4M
20260506T12Z_MSC_CAPS_WindDir_IsbL-1015_RLatLon0.03_PT027H.grib2 2026-05-06 18:20 2.5M
20260506T12Z_MSC_CAPS_WindGust-Max_AGL-10m_RLatLon0.03_PT027H.grib2 2026-05-06 18:20 2.5M
20260506T12Z_MSC_CAPS_WindGust-Min_AGL-10m_RLatLon0.03_PT027H.grib2 2026-05-06 18:20 2.4M
20260506T12Z_MSC_CAPS_WindGust_AGL-10m_RLatLon0.03_PT027H.grib2 2026-05-06 18:20 2.5M
20260506T12Z_MSC_CAPS_WindSpeed_AGL-10m_RLatLon0.03_PT027H.grib2 2026-05-06 18:20 2.1M
20260506T12Z_MSC_CAPS_WindSpeed_AGL-120m_RLatLon0.03_PT027H.grib2 2026-05-06 18:20 1.1M
20260506T12Z_MSC_CAPS_WindSpeed_AGL-40m_RLatLon0.03_PT027H.grib2 2026-05-06 18:20 1.2M
20260506T12Z_MSC_CAPS_WindSpeed_AGL-80m_RLatLon0.03_PT027H.grib2 2026-05-06 18:20 1.1M
20260506T12Z_MSC_CAPS_WindSpeed_IsbL-0050_RLatLon0.03_PT027H.grib2 2026-05-06 18:20 934K
20260506T12Z_MSC_CAPS_WindSpeed_IsbL-0100_RLatLon0.03_PT027H.grib2 2026-05-06 18:20 1.3M
20260506T12Z_MSC_CAPS_WindSpeed_IsbL-0150_RLatLon0.03_PT027H.grib2 2026-05-06 18:20 1.0M
20260506T12Z_MSC_CAPS_WindSpeed_IsbL-0175_RLatLon0.03_PT027H.grib2 2026-05-06 18:20 1.2M
20260506T12Z_MSC_CAPS_WindSpeed_IsbL-0200_RLatLon0.03_PT027H.grib2 2026-05-06 18:20 1.2M
20260506T12Z_MSC_CAPS_WindSpeed_IsbL-0225_RLatLon0.03_PT027H.grib2 2026-05-06 18:20 963K
20260506T12Z_MSC_CAPS_WindSpeed_IsbL-0250_RLatLon0.03_PT027H.grib2 2026-05-06 18:20 1.0M
20260506T12Z_MSC_CAPS_WindSpeed_IsbL-0275_RLatLon0.03_PT027H.grib2 2026-05-06 18:20 1.0M
20260506T12Z_MSC_CAPS_WindSpeed_IsbL-0300_RLatLon0.03_PT027H.grib2 2026-05-06 18:20 1.0M
20260506T12Z_MSC_CAPS_WindSpeed_IsbL-0350_RLatLon0.03_PT027H.grib2 2026-05-06 18:20 1.0M
20260506T12Z_MSC_CAPS_WindSpeed_IsbL-0400_RLatLon0.03_PT027H.grib2 2026-05-06 18:20 1.0M
20260506T12Z_MSC_CAPS_WindSpeed_IsbL-0450_RLatLon0.03_PT027H.grib2 2026-05-06 18:20 1.3M
20260506T12Z_MSC_CAPS_WindSpeed_IsbL-0500_RLatLon0.03_PT027H.grib2 2026-05-06 18:20 1.3M
20260506T12Z_MSC_CAPS_WindSpeed_IsbL-0550_RLatLon0.03_PT027H.grib2 2026-05-06 18:20 1.4M
20260506T12Z_MSC_CAPS_WindSpeed_IsbL-0600_RLatLon0.03_PT027H.grib2 2026-05-06 18:20 1.4M
20260506T12Z_MSC_CAPS_WindSpeed_IsbL-0650_RLatLon0.03_PT027H.grib2 2026-05-06 18:20 1.5M
20260506T12Z_MSC_CAPS_WindSpeed_IsbL-0700_RLatLon0.03_PT027H.grib2 2026-05-06 18:20 1.5M
20260506T12Z_MSC_CAPS_WindSpeed_IsbL-0750_RLatLon0.03_PT027H.grib2 2026-05-06 18:20 1.6M
20260506T12Z_MSC_CAPS_WindSpeed_IsbL-0800_RLatLon0.03_PT027H.grib2 2026-05-06 18:20 1.7M
20260506T12Z_MSC_CAPS_WindSpeed_IsbL-0850_RLatLon0.03_PT027H.grib2 2026-05-06 18:20 1.7M
20260506T12Z_MSC_CAPS_WindSpeed_IsbL-0875_RLatLon0.03_PT027H.grib2 2026-05-06 18:20 1.8M
20260506T12Z_MSC_CAPS_WindSpeed_IsbL-0900_RLatLon0.03_PT027H.grib2 2026-05-06 18:20 1.8M
20260506T12Z_MSC_CAPS_WindSpeed_IsbL-0925_RLatLon0.03_PT027H.grib2 2026-05-06 18:20 1.9M
20260506T12Z_MSC_CAPS_WindSpeed_IsbL-0950_RLatLon0.03_PT027H.grib2 2026-05-06 18:20 1.9M
20260506T12Z_MSC_CAPS_WindSpeed_IsbL-0970_RLatLon0.03_PT027H.grib2 2026-05-06 18:20 1.9M
20260506T12Z_MSC_CAPS_WindSpeed_IsbL-0985_RLatLon0.03_PT027H.grib2 2026-05-06 18:20 2.0M
20260506T12Z_MSC_CAPS_WindSpeed_IsbL-1000_RLatLon0.03_PT027H.grib2 2026-05-06 18:20 2.0M
20260506T12Z_MSC_CAPS_WindSpeed_IsbL-1015_RLatLon0.03_PT027H.grib2 2026-05-06 18:20 2.1M
20260506T12Z_MSC_CAPS_WindU_AGL-10m_RLatLon0.03_PT027H.grib2 2026-05-06 18:20 2.0M
20260506T12Z_MSC_CAPS_WindU_AGL-120m_RLatLon0.03_PT027H.grib2 2026-05-06 18:20 1.2M
20260506T12Z_MSC_CAPS_WindU_AGL-40m_RLatLon0.03_PT027H.grib2 2026-05-06 18:20 1.2M
20260506T12Z_MSC_CAPS_WindU_AGL-80m_RLatLon0.03_PT027H.grib2 2026-05-06 18:20 1.2M
20260506T12Z_MSC_CAPS_WindU_IsbL-0050_RLatLon0.03_PT027H.grib2 2026-05-06 18:20 929K
20260506T12Z_MSC_CAPS_WindU_IsbL-0100_RLatLon0.03_PT027H.grib2 2026-05-06 18:20 956K
20260506T12Z_MSC_CAPS_WindU_IsbL-0150_RLatLon0.03_PT027H.grib2 2026-05-06 18:20 926K
20260506T12Z_MSC_CAPS_WindU_IsbL-0175_RLatLon0.03_PT027H.grib2 2026-05-06 18:20 741K
20260506T12Z_MSC_CAPS_WindU_IsbL-0200_RLatLon0.03_PT027H.grib2 2026-05-06 18:20 763K
20260506T12Z_MSC_CAPS_WindU_IsbL-0225_RLatLon0.03_PT027H.grib2 2026-05-06 18:20 908K
20260506T12Z_MSC_CAPS_WindU_IsbL-0250_RLatLon0.03_PT027H.grib2 2026-05-06 18:20 920K
20260506T12Z_MSC_CAPS_WindU_IsbL-0275_RLatLon0.03_PT027H.grib2 2026-05-06 18:20 924K
20260506T12Z_MSC_CAPS_WindU_IsbL-0300_RLatLon0.03_PT027H.grib2 2026-05-06 18:20 720K
20260506T12Z_MSC_CAPS_WindU_IsbL-0350_RLatLon0.03_PT027H.grib2 2026-05-06 18:20 730K
20260506T12Z_MSC_CAPS_WindU_IsbL-0400_RLatLon0.03_PT027H.grib2 2026-05-06 18:20 954K
20260506T12Z_MSC_CAPS_WindU_IsbL-0450_RLatLon0.03_PT027H.grib2 2026-05-06 18:20 1.0M
20260506T12Z_MSC_CAPS_WindU_IsbL-0500_RLatLon0.03_PT027H.grib2 2026-05-06 18:20 1.0M
20260506T12Z_MSC_CAPS_WindU_IsbL-0550_RLatLon0.03_PT027H.grib2 2026-05-06 18:20 916K
20260506T12Z_MSC_CAPS_WindU_IsbL-0600_RLatLon0.03_PT027H.grib2 2026-05-06 18:20 1.2M
20260506T12Z_MSC_CAPS_WindU_IsbL-0650_RLatLon0.03_PT027H.grib2 2026-05-06 18:20 1.2M
20260506T12Z_MSC_CAPS_WindU_IsbL-0700_RLatLon0.03_PT027H.grib2 2026-05-06 18:20 1.3M
20260506T12Z_MSC_CAPS_WindU_IsbL-0750_RLatLon0.03_PT027H.grib2 2026-05-06 18:20 1.4M
20260506T12Z_MSC_CAPS_WindU_IsbL-0800_RLatLon0.03_PT027H.grib2 2026-05-06 18:20 1.4M
20260506T12Z_MSC_CAPS_WindU_IsbL-0850_RLatLon0.03_PT027H.grib2 2026-05-06 18:20 1.2M
20260506T12Z_MSC_CAPS_WindU_IsbL-0875_RLatLon0.03_PT027H.grib2 2026-05-06 18:20 1.2M
20260506T12Z_MSC_CAPS_WindU_IsbL-0900_RLatLon0.03_PT027H.grib2 2026-05-06 18:20 1.3M
20260506T12Z_MSC_CAPS_WindU_IsbL-0925_RLatLon0.03_PT027H.grib2 2026-05-06 18:20 1.3M
20260506T12Z_MSC_CAPS_WindU_IsbL-0950_RLatLon0.03_PT027H.grib2 2026-05-06 18:20 1.4M
20260506T12Z_MSC_CAPS_WindU_IsbL-0970_RLatLon0.03_PT027H.grib2 2026-05-06 18:20 1.4M
20260506T12Z_MSC_CAPS_WindU_IsbL-0985_RLatLon0.03_PT027H.grib2 2026-05-06 18:20 1.4M
20260506T12Z_MSC_CAPS_WindU_IsbL-1000_RLatLon0.03_PT027H.grib2 2026-05-06 18:20 1.8M
20260506T12Z_MSC_CAPS_WindU_IsbL-1015_RLatLon0.03_PT027H.grib2 2026-05-06 18:20 1.9M
20260506T12Z_MSC_CAPS_WindV_AGL-10m_RLatLon0.03_PT027H.grib2 2026-05-06 18:20 2.0M
20260506T12Z_MSC_CAPS_WindV_AGL-120m_RLatLon0.03_PT027H.grib2 2026-05-06 18:20 1.2M
20260506T12Z_MSC_CAPS_WindV_AGL-40m_RLatLon0.03_PT027H.grib2 2026-05-06 18:20 1.2M
20260506T12Z_MSC_CAPS_WindV_AGL-80m_RLatLon0.03_PT027H.grib2 2026-05-06 18:20 1.2M
20260506T12Z_MSC_CAPS_WindV_IsbL-0050_RLatLon0.03_PT027H.grib2 2026-05-06 18:20 760K
20260506T12Z_MSC_CAPS_WindV_IsbL-0100_RLatLon0.03_PT027H.grib2 2026-05-06 18:20 784K
20260506T12Z_MSC_CAPS_WindV_IsbL-0150_RLatLon0.03_PT027H.grib2 2026-05-06 18:20 915K
20260506T12Z_MSC_CAPS_WindV_IsbL-0175_RLatLon0.03_PT027H.grib2 2026-05-06 18:20 726K
20260506T12Z_MSC_CAPS_WindV_IsbL-0200_RLatLon0.03_PT027H.grib2 2026-05-06 18:20 876K
20260506T12Z_MSC_CAPS_WindV_IsbL-0225_RLatLon0.03_PT027H.grib2 2026-05-06 18:20 895K
20260506T12Z_MSC_CAPS_WindV_IsbL-0250_RLatLon0.03_PT027H.grib2 2026-05-06 18:20 913K
20260506T12Z_MSC_CAPS_WindV_IsbL-0275_RLatLon0.03_PT027H.grib2 2026-05-06 18:20 916K
20260506T12Z_MSC_CAPS_WindV_IsbL-0300_RLatLon0.03_PT027H.grib2 2026-05-06 18:20 924K
20260506T12Z_MSC_CAPS_WindV_IsbL-0350_RLatLon0.03_PT027H.grib2 2026-05-06 18:20 940K
20260506T12Z_MSC_CAPS_WindV_IsbL-0400_RLatLon0.03_PT027H.grib2 2026-05-06 18:20 948K
20260506T12Z_MSC_CAPS_WindV_IsbL-0450_RLatLon0.03_PT027H.grib2 2026-05-06 18:20 967K
20260506T12Z_MSC_CAPS_WindV_IsbL-0500_RLatLon0.03_PT027H.grib2 2026-05-06 18:20 877K
20260506T12Z_MSC_CAPS_WindV_IsbL-0550_RLatLon0.03_PT027H.grib2 2026-05-06 18:20 903K
20260506T12Z_MSC_CAPS_WindV_IsbL-0600_RLatLon0.03_PT027H.grib2 2026-05-06 18:20 932K
20260506T12Z_MSC_CAPS_WindV_IsbL-0650_RLatLon0.03_PT027H.grib2 2026-05-06 18:20 965K
20260506T12Z_MSC_CAPS_WindV_IsbL-0700_RLatLon0.03_PT027H.grib2 2026-05-06 18:20 1.0M
20260506T12Z_MSC_CAPS_WindV_IsbL-0750_RLatLon0.03_PT027H.grib2 2026-05-06 18:20 1.1M
20260506T12Z_MSC_CAPS_WindV_IsbL-0800_RLatLon0.03_PT027H.grib2 2026-05-06 18:20 1.1M
20260506T12Z_MSC_CAPS_WindV_IsbL-0850_RLatLon0.03_PT027H.grib2 2026-05-06 18:20 1.2M
20260506T12Z_MSC_CAPS_WindV_IsbL-0875_RLatLon0.03_PT027H.grib2 2026-05-06 18:20 1.2M
20260506T12Z_MSC_CAPS_WindV_IsbL-0900_RLatLon0.03_PT027H.grib2 2026-05-06 18:20 1.3M
20260506T12Z_MSC_CAPS_WindV_IsbL-0925_RLatLon0.03_PT027H.grib2 2026-05-06 18:20 1.3M
20260506T12Z_MSC_CAPS_WindV_IsbL-0950_RLatLon0.03_PT027H.grib2 2026-05-06 18:20 1.3M
20260506T12Z_MSC_CAPS_WindV_IsbL-0970_RLatLon0.03_PT027H.grib2 2026-05-06 18:20 1.7M
20260506T12Z_MSC_CAPS_WindV_IsbL-0985_RLatLon0.03_PT027H.grib2 2026-05-06 18:20 1.8M
20260506T12Z_MSC_CAPS_WindV_IsbL-1000_RLatLon0.03_PT027H.grib2 2026-05-06 18:20 2.0M
20260506T12Z_MSC_CAPS_WindV_IsbL-1015_RLatLon0.03_PT027H.grib2 2026-05-06 18:20 2.0M